Year,Month,Day,Hour,Minute,Value (Times are PST for temperature in C)
2013,08,10,00,00,20.10
2013,08,10,00,01,20.00
2013,08,10,00,02,20.00
2013,08,10,00,03,19.90
2013,08,10,00,04,19.90
2013,08,10,00,05,19.90
2013,08,10,00,06,19.90
2013,08,10,00,07,19.90
2013,08,10,00,08,19.80
2013,08,10,00,09,19.80
2013,08,10,00,10,19.80
2013,08,10,00,11,19.80
2013,08,10,00,12,19.80
2013,08,10,00,13,19.70
2013,08,10,00,14,19.70
2013,08,10,00,15,19.70
2013,08,10,00,16,19.70
2013,08,10,00,17,19.70
2013,08,10,00,18,19.70
2013,08,10,00,19,19.70
2013,08,10,00,20,19.60
2013,08,10,00,21,19.60
2013,08,10,00,22,19.60
2013,08,10,00,23,19.60
2013,08,10,00,24,19.60
2013,08,10,00,25,19.60
2013,08,10,00,26,19.50
2013,08,10,00,27,19.50
2013,08,10,00,28,19.50
2013,08,10,00,29,19.50
2013,08,10,00,30,19.50
2013,08,10,00,31,19.50
2013,08,10,00,32,19.50
2013,08,10,00,33,19.40
2013,08,10,00,34,19.40
2013,08,10,00,35,19.40
2013,08,10,00,36,19.40
2013,08,10,00,37,19.40
2013,08,10,00,38,19.40
2013,08,10,00,39,19.40
2013,08,10,00,40,19.30
2013,08,10,00,41,19.30
2013,08,10,00,42,19.30
2013,08,10,00,43,19.30
2013,08,10,00,44,19.30
2013,08,10,00,45,19.30
2013,08,10,00,46,19.20
2013,08,10,00,47,19.20
2013,08,10,00,48,19.20
2013,08,10,00,49,19.20
2013,08,10,00,50,19.20
2013,08,10,00,51,19.10
2013,08,10,00,52,19.10
2013,08,10,00,53,19.10
2013,08,10,00,54,19.10
2013,08,10,00,55,19.10
2013,08,10,00,56,19.10
2013,08,10,00,57,19.00
2013,08,10,00,58,19.00
2013,08,10,00,59,19.00
2013,08,10,01,00,18.90
2013,08,10,01,01,18.90
2013,08,10,01,02,18.90
2013,08,10,01,03,18.90
2013,08,10,01,04,18.90
2013,08,10,01,05,18.80
2013,08,10,01,06,18.80
2013,08,10,01,07,18.80
2013,08,10,01,08,18.80
2013,08,10,01,09,18.80
2013,08,10,01,10,18.80
2013,08,10,01,11,18.80
2013,08,10,01,12,18.80
2013,08,10,01,13,18.70
2013,08,10,01,14,18.70
2013,08,10,01,15,18.70
2013,08,10,01,16,18.70
2013,08,10,01,17,18.70
2013,08,10,01,18,18.70
2013,08,10,01,19,18.70
2013,08,10,01,20,18.70
2013,08,10,01,21,18.70
2013,08,10,01,22,18.70
2013,08,10,01,23,18.60
2013,08,10,01,24,18.60
2013,08,10,01,25,18.60
2013,08,10,01,26,18.60
2013,08,10,01,27,18.60
2013,08,10,01,28,18.60
2013,08,10,01,29,18.60
2013,08,10,01,30,18.60
2013,08,10,01,31,18.60
2013,08,10,01,32,18.60
2013,08,10,01,33,18.60
2013,08,10,01,34,18.50
2013,08,10,01,35,18.50
2013,08,10,01,36,18.50
2013,08,10,01,37,18.50
2013,08,10,01,38,18.50
2013,08,10,01,39,18.50
2013,08,10,01,40,18.40
2013,08,10,01,41,18.40
2013,08,10,01,42,18.40
2013,08,10,01,43,18.40
2013,08,10,01,44,18.40
2013,08,10,01,45,18.40
2013,08,10,01,46,18.40
2013,08,10,01,47,18.30
2013,08,10,01,48,18.30
2013,08,10,01,49,18.30
2013,08,10,01,50,18.30
2013,08,10,01,51,18.30
2013,08,10,01,52,18.30
2013,08,10,01,53,18.20
2013,08,10,01,54,18.20
2013,08,10,01,55,18.20
2013,08,10,01,56,18.20
2013,08,10,01,57,18.20
2013,08,10,01,58,18.20
2013,08,10,01,59,18.20
2013,08,10,02,00,18.20
2013,08,10,02,01,18.20
2013,08,10,02,02,18.10
2013,08,10,02,03,18.10
2013,08,10,02,04,18.10
2013,08,10,02,05,18.10
2013,08,10,02,06,18.10
2013,08,10,02,07,18.10
2013,08,10,02,08,18.10
2013,08,10,02,09,18.10
2013,08,10,02,10,18.10
2013,08,10,02,11,18.10
2013,08,10,02,12,18.00
2013,08,10,02,13,18.00
2013,08,10,02,14,18.00
2013,08,10,02,15,18.00
2013,08,10,02,16,18.00
2013,08,10,02,17,18.00
2013,08,10,02,18,18.00
2013,08,10,02,19,18.00
2013,08,10,02,20,18.00
2013,08,10,02,21,18.00
2013,08,10,02,22,18.00
2013,08,10,02,23,18.00
2013,08,10,02,24,17.90
2013,08,10,02,25,17.90
2013,08,10,02,26,17.90
2013,08,10,02,27,17.90
2013,08,10,02,28,17.90
2013,08,10,02,29,17.90
2013,08,10,02,30,17.90
2013,08,10,02,31,17.90
2013,08,10,02,32,17.90
2013,08,10,02,33,17.80
2013,08,10,02,34,17.80
2013,08,10,02,35,17.80
2013,08,10,02,36,17.80
2013,08,10,02,37,17.80
2013,08,10,02,38,17.80
2013,08,10,02,39,17.80
2013,08,10,02,40,17.80
2013,08,10,02,41,17.80
2013,08,10,02,42,17.80
2013,08,10,02,43,17.70
2013,08,10,02,44,17.70
2013,08,10,02,45,17.70
2013,08,10,02,46,17.70
2013,08,10,02,47,17.70
2013,08,10,02,48,17.70
2013,08,10,02,49,17.70
2013,08,10,02,50,17.70
2013,08,10,02,51,17.70
2013,08,10,02,52,17.70
2013,08,10,02,53,17.70
2013,08,10,02,54,17.60
2013,08,10,02,55,17.60
2013,08,10,02,56,17.60
2013,08,10,02,57,17.60
2013,08,10,02,58,17.60
2013,08,10,02,59,17.60
2013,08,10,03,00,17.60
2013,08,10,03,01,17.60
2013,08,10,03,02,17.60
2013,08,10,03,03,17.60
2013,08,10,03,04,17.60
2013,08,10,03,05,17.60
2013,08,10,03,06,17.60
2013,08,10,03,07,17.60
2013,08,10,03,08,17.50
2013,08,10,03,09,17.50
2013,08,10,03,10,17.50
2013,08,10,03,11,17.50
2013,08,10,03,12,17.50
2013,08,10,03,13,17.40
2013,08,10,03,14,17.40
2013,08,10,03,15,17.40
2013,08,10,03,16,17.40
2013,08,10,03,17,17.40
2013,08,10,03,18,17.40
2013,08,10,03,19,17.40
2013,08,10,03,20,17.40
2013,08,10,03,21,17.30
2013,08,10,03,22,17.30
2013,08,10,03,23,17.30
2013,08,10,03,24,17.30
2013,08,10,03,25,17.30
2013,08,10,03,26,17.30
2013,08,10,03,27,17.30
2013,08,10,03,28,17.30
2013,08,10,03,29,17.30
2013,08,10,03,30,17.30
2013,08,10,03,31,17.30
2013,08,10,03,32,17.30
2013,08,10,03,33,17.30
2013,08,10,03,34,17.30
2013,08,10,03,35,17.30
2013,08,10,03,36,17.30
2013,08,10,03,37,17.30
2013,08,10,03,38,17.30
2013,08,10,03,39,17.30
2013,08,10,03,40,17.30
2013,08,10,03,41,17.20
2013,08,10,03,42,17.20
2013,08,10,03,43,17.20
2013,08,10,03,44,17.20
2013,08,10,03,45,17.10
2013,08,10,03,46,17.10
2013,08,10,03,47,17.10
2013,08,10,03,48,17.10
2013,08,10,03,49,17.00
2013,08,10,03,50,17.00
2013,08,10,03,51,16.90
2013,08,10,03,52,16.90
2013,08,10,03,53,16.90
2013,08,10,03,54,16.90
2013,08,10,03,55,16.80
2013,08,10,03,56,16.80
2013,08,10,03,57,16.80
2013,08,10,03,58,16.70
2013,08,10,03,59,16.70
2013,08,10,04,00,16.70
2013,08,10,04,01,16.70
2013,08,10,04,02,16.60
2013,08,10,04,03,16.60
2013,08,10,04,04,16.60
2013,08,10,04,05,16.50
2013,08,10,04,06,16.50
2013,08,10,04,07,16.50
2013,08,10,04,08,16.40
2013,08,10,04,09,16.40
2013,08,10,04,10,16.40
2013,08,10,04,11,16.40
2013,08,10,04,12,16.40
2013,08,10,04,13,16.30
2013,08,10,04,14,16.30
2013,08,10,04,15,16.30
2013,08,10,04,16,16.30
2013,08,10,04,17,16.20
2013,08,10,04,18,16.20
2013,08,10,04,19,16.20
2013,08,10,04,20,16.20
2013,08,10,04,21,16.20
2013,08,10,04,22,16.10
2013,08,10,04,23,16.10
2013,08,10,04,24,16.10
2013,08,10,04,25,16.10
2013,08,10,04,26,16.10
2013,08,10,04,27,16.10
2013,08,10,04,28,16.00
2013,08,10,04,29,16.00
2013,08,10,04,30,16.00
2013,08,10,04,31,15.90
2013,08,10,04,32,15.90
2013,08,10,04,33,15.90
2013,08,10,04,34,15.90
2013,08,10,04,35,15.90
2013,08,10,04,36,15.90
2013,08,10,04,37,15.90
2013,08,10,04,38,15.80
2013,08,10,04,39,15.80
2013,08,10,04,40,15.80
2013,08,10,04,41,15.80
2013,08,10,04,42,15.80
2013,08,10,04,43,15.70
2013,08,10,04,44,15.70
2013,08,10,04,45,15.70
2013,08,10,04,46,15.70
2013,08,10,04,47,15.70
2013,08,10,04,48,15.60
2013,08,10,04,49,15.60
2013,08,10,04,50,15.60
2013,08,10,04,51,15.60
2013,08,10,04,52,15.50
2013,08,10,04,53,15.50
2013,08,10,04,54,15.50
2013,08,10,04,55,15.50
2013,08,10,04,56,15.50
2013,08,10,04,57,15.50
2013,08,10,04,58,15.50
2013,08,10,04,59,15.50
2013,08,10,05,00,15.50
2013,08,10,05,01,15.50
2013,08,10,05,02,15.50
2013,08,10,05,03,15.50
2013,08,10,05,04,15.50
2013,08,10,05,05,15.40
2013,08,10,05,06,15.40
2013,08,10,05,07,15.40
2013,08,10,05,08,15.40
2013,08,10,05,09,15.40
2013,08,10,05,10,15.40
2013,08,10,05,11,15.40
2013,08,10,05,12,15.40
2013,08,10,05,13,15.40
2013,08,10,05,14,15.40
2013,08,10,05,15,15.40
2013,08,10,05,16,15.30
2013,08,10,05,17,15.30
2013,08,10,05,18,15.30
2013,08,10,05,19,15.30
2013,08,10,05,20,15.30
2013,08,10,05,21,15.30
2013,08,10,05,22,15.30
2013,08,10,05,23,15.30
2013,08,10,05,24,15.30
2013,08,10,05,25,15.30
2013,08,10,05,26,15.20
2013,08,10,05,27,15.20
2013,08,10,05,28,15.20
2013,08,10,05,29,15.20
2013,08,10,05,30,15.20
2013,08,10,05,31,15.20
2013,08,10,05,32,15.20
2013,08,10,05,33,15.20
2013,08,10,05,34,15.20
2013,08,10,05,35,15.20
2013,08,10,05,36,15.20
2013,08,10,05,37,15.20
2013,08,10,05,38,15.20
2013,08,10,05,39,15.20
2013,08,10,05,40,15.10
2013,08,10,05,41,15.10
2013,08,10,05,42,15.10
2013,08,10,05,43,15.10
2013,08,10,05,44,15.10
2013,08,10,05,45,15.10
2013,08,10,05,46,15.10
2013,08,10,05,47,15.10
2013,08,10,05,48,15.10
2013,08,10,05,49,15.10
2013,08,10,05,50,15.10
2013,08,10,05,51,15.00
2013,08,10,05,52,15.00
2013,08,10,05,53,15.00
2013,08,10,05,54,15.00
2013,08,10,05,55,15.00
2013,08,10,05,56,15.00
2013,08,10,05,57,14.90
2013,08,10,05,58,14.90
2013,08,10,05,59,14.90
2013,08,10,06,00,14.90
2013,08,10,06,01,14.90
2013,08,10,06,02,14.90
2013,08,10,06,03,14.90
2013,08,10,06,04,14.90
2013,08,10,06,05,14.90
2013,08,10,06,06,14.90
2013,08,10,06,07,14.90
2013,08,10,06,08,14.90
2013,08,10,06,09,15.00
2013,08,10,06,10,15.00
2013,08,10,06,11,15.00
2013,08,10,06,12,15.00
2013,08,10,06,13,15.00
2013,08,10,06,14,15.00
2013,08,10,06,15,15.00
2013,08,10,06,16,15.00
2013,08,10,06,17,15.00
2013,08,10,06,18,15.00
2013,08,10,06,19,15.00
2013,08,10,06,20,15.00
2013,08,10,06,21,15.00
2013,08,10,06,22,15.00
2013,08,10,06,23,15.10
2013,08,10,06,24,15.10
2013,08,10,06,25,15.10
2013,08,10,06,26,15.10
2013,08,10,06,27,15.10
2013,08,10,06,28,15.10
2013,08,10,06,29,15.10
2013,08,10,06,30,15.10
2013,08,10,06,31,15.10
2013,08,10,06,32,15.10
2013,08,10,06,33,15.10
2013,08,10,06,34,15.20
2013,08,10,06,35,15.20
2013,08,10,06,36,15.20
2013,08,10,06,37,15.20
2013,08,10,06,38,15.20
2013,08,10,06,39,15.20
2013,08,10,06,40,15.20
2013,08,10,06,41,15.20
2013,08,10,06,42,15.20
2013,08,10,06,43,15.20
2013,08,10,06,44,15.30
2013,08,10,06,45,15.30
2013,08,10,06,46,15.30
2013,08,10,06,47,15.30
2013,08,10,06,48,15.30
2013,08,10,06,49,15.30
2013,08,10,06,50,15.30
2013,08,10,06,51,15.30
2013,08,10,06,52,15.30
2013,08,10,06,53,15.30
2013,08,10,06,54,15.40
2013,08,10,06,55,15.40
2013,08,10,06,56,15.40
2013,08,10,06,57,15.40
2013,08,10,06,58,15.40
2013,08,10,06,59,15.40
2013,08,10,07,00,15.40
2013,08,10,07,01,15.40
2013,08,10,07,02,15.40
2013,08,10,07,03,15.50
2013,08,10,07,04,15.50
2013,08,10,07,05,15.60
2013,08,10,07,06,15.60
2013,08,10,07,07,15.60
2013,08,10,07,08,15.60
2013,08,10,07,09,15.70
2013,08,10,07,10,15.70
2013,08,10,07,11,15.70
2013,08,10,07,12,15.70
2013,08,10,07,13,15.70
2013,08,10,07,14,15.70
2013,08,10,07,15,15.70
2013,08,10,07,16,15.80
2013,08,10,07,17,15.80
2013,08,10,07,18,15.80
2013,08,10,07,19,15.80
2013,08,10,07,20,15.80
2013,08,10,07,21,15.90
2013,08,10,07,22,15.90
2013,08,10,07,23,15.90
2013,08,10,07,24,15.90
2013,08,10,07,25,16.00
2013,08,10,07,26,16.00
2013,08,10,07,27,16.10
2013,08,10,07,28,16.10
2013,08,10,07,29,16.10
2013,08,10,07,30,16.20
2013,08,10,07,31,16.20
2013,08,10,07,32,16.20
2013,08,10,07,33,16.30
2013,08,10,07,34,16.30
2013,08,10,07,35,16.30
2013,08,10,07,36,16.30
2013,08,10,07,37,16.40
2013,08,10,07,38,16.40
2013,08,10,07,39,16.40
2013,08,10,07,40,16.50
2013,08,10,07,41,16.50
2013,08,10,07,42,16.60
2013,08,10,07,43,16.60
2013,08,10,07,44,16.60
2013,08,10,07,45,16.70
2013,08,10,07,46,16.70
2013,08,10,07,47,16.70
2013,08,10,07,48,16.80
2013,08,10,07,49,16.80
2013,08,10,07,50,16.90
2013,08,10,07,51,16.90
2013,08,10,07,52,17.00
2013,08,10,07,53,17.00
2013,08,10,07,54,17.10
2013,08,10,07,55,17.10
2013,08,10,07,56,17.10
2013,08,10,07,57,17.20
2013,08,10,07,58,17.20
2013,08,10,07,59,17.20
2013,08,10,08,00,17.20
2013,08,10,08,01,17.20
2013,08,10,08,02,17.20
2013,08,10,08,03,17.30
2013,08,10,08,04,17.30
2013,08,10,08,05,17.30
2013,08,10,08,06,17.30
2013,08,10,08,07,17.30
2013,08,10,08,08,17.40
2013,08,10,08,09,17.40
2013,08,10,08,10,17.40
2013,08,10,08,11,17.40
2013,08,10,08,12,17.40
2013,08,10,08,13,17.40
2013,08,10,08,14,17.40
2013,08,10,08,15,17.40
2013,08,10,08,16,17.50
2013,08,10,08,17,17.50
2013,08,10,08,18,17.50
2013,08,10,08,19,17.50
2013,08,10,08,20,17.60
2013,08,10,08,21,17.60
2013,08,10,08,22,17.70
2013,08,10,08,23,17.70
2013,08,10,08,24,17.70
2013,08,10,08,25,17.70
2013,08,10,08,26,17.70
2013,08,10,08,27,17.70
2013,08,10,08,28,17.70
2013,08,10,08,29,17.70
2013,08,10,08,30,17.70
2013,08,10,08,31,17.80
2013,08,10,08,32,17.80
2013,08,10,08,33,17.80
2013,08,10,08,34,17.90
2013,08,10,08,35,17.90
2013,08,10,08,36,18.00
2013,08,10,08,37,18.10
2013,08,10,08,38,18.10
2013,08,10,08,39,18.10
2013,08,10,08,40,18.10
2013,08,10,08,41,18.20
2013,08,10,08,42,18.20
2013,08,10,08,43,18.20
2013,08,10,08,44,18.20
2013,08,10,08,45,18.20
2013,08,10,08,46,18.30
2013,08,10,08,47,18.30
2013,08,10,08,48,18.30
2013,08,10,08,49,18.30
2013,08,10,08,50,18.40
2013,08,10,08,51,18.40
2013,08,10,08,52,18.50
2013,08,10,08,53,18.50
2013,08,10,08,54,18.60
2013,08,10,08,55,18.60
2013,08,10,08,56,18.60
2013,08,10,08,57,18.70
2013,08,10,08,58,18.70
2013,08,10,08,59,18.80
2013,08,10,09,00,18.80
2013,08,10,09,01,18.90
2013,08,10,09,02,18.90
2013,08,10,09,03,18.90
2013,08,10,09,04,19.00
2013,08,10,09,05,19.00
2013,08,10,09,06,19.10
2013,08,10,09,07,19.10
2013,08,10,09,08,19.10
2013,08,10,09,09,19.10
2013,08,10,09,10,19.10
2013,08,10,09,11,19.00
2013,08,10,09,12,19.00
2013,08,10,09,13,19.00
2013,08,10,09,14,19.00
2013,08,10,09,15,18.90
2013,08,10,09,16,18.90
2013,08,10,09,17,18.90
2013,08,10,09,18,18.90
2013,08,10,09,19,18.90
2013,08,10,09,20,19.00
2013,08,10,09,21,19.10
2013,08,10,09,22,19.10
2013,08,10,09,23,19.10
2013,08,10,09,24,19.10
2013,08,10,09,25,19.20
2013,08,10,09,26,19.20
2013,08,10,09,27,19.20
2013,08,10,09,28,19.20
2013,08,10,09,29,19.20
2013,08,10,09,30,19.30
2013,08,10,09,31,19.30
2013,08,10,09,32,19.30
2013,08,10,09,33,19.40
2013,08,10,09,34,19.40
2013,08,10,09,35,19.40
2013,08,10,09,36,19.40
2013,08,10,09,37,19.50
2013,08,10,09,38,19.40
2013,08,10,09,39,19.40
2013,08,10,09,40,19.40
2013,08,10,09,41,19.30
2013,08,10,09,42,19.30
2013,08,10,09,43,19.30
2013,08,10,09,44,19.30
2013,08,10,09,45,19.30
2013,08,10,09,46,19.30
2013,08,10,09,47,19.40
2013,08,10,09,48,19.40
2013,08,10,09,49,19.40
2013,08,10,09,50,19.40
2013,08,10,09,51,19.40
2013,08,10,09,52,19.40
2013,08,10,09,53,19.40
2013,08,10,09,54,19.40
2013,08,10,09,55,19.40
2013,08,10,09,56,19.40
2013,08,10,09,57,19.40
2013,08,10,09,58,19.40
2013,08,10,09,59,19.50
2013,08,10,10,00,19.50
2013,08,10,10,01,19.50
2013,08,10,10,02,19.50
2013,08,10,10,03,19.40
2013,08,10,10,04,19.40
2013,08,10,10,05,19.30
2013,08,10,10,06,19.30
2013,08,10,10,07,19.30
2013,08,10,10,08,19.30
2013,08,10,10,09,19.30
2013,08,10,10,10,19.30
2013,08,10,10,11,19.30
2013,08,10,10,12,19.30
2013,08,10,10,13,19.20
2013,08,10,10,14,19.20
2013,08,10,10,15,19.20
2013,08,10,10,16,19.20
2013,08,10,10,17,19.20
2013,08,10,10,18,19.20
2013,08,10,10,19,19.20
2013,08,10,10,20,19.10
2013,08,10,10,21,19.10
2013,08,10,10,22,19.00
2013,08,10,10,23,18.90
2013,08,10,10,24,18.90
2013,08,10,10,25,18.90
2013,08,10,10,26,18.90
2013,08,10,10,27,18.80
2013,08,10,10,28,18.80
2013,08,10,10,29,18.80
2013,08,10,10,30,18.80
2013,08,10,10,31,18.70
2013,08,10,10,32,18.70
2013,08,10,10,33,18.70
2013,08,10,10,34,18.70
2013,08,10,10,35,18.70
2013,08,10,10,36,18.70
2013,08,10,10,37,18.80
2013,08,10,10,38,18.80
2013,08,10,10,39,18.80
2013,08,10,10,40,18.80
2013,08,10,10,41,18.90
2013,08,10,10,42,18.90
2013,08,10,10,43,18.90
2013,08,10,10,44,19.00
2013,08,10,10,45,19.00
2013,08,10,10,46,19.10
2013,08,10,10,47,19.10
2013,08,10,10,48,19.20
2013,08,10,10,49,19.30
2013,08,10,10,50,19.40
2013,08,10,10,51,19.50
2013,08,10,10,52,19.60
2013,08,10,10,53,19.70
2013,08,10,10,54,19.80
2013,08,10,10,55,19.90
2013,08,10,10,56,20.00
2013,08,10,10,57,20.00
2013,08,10,10,58,20.00
2013,08,10,10,59,20.10
2013,08,10,11,00,20.20
2013,08,10,11,01,20.30
2013,08,10,11,02,20.30
2013,08,10,11,03,20.40
2013,08,10,11,04,20.40
2013,08,10,11,05,20.50
2013,08,10,11,06,20.60
2013,08,10,11,07,20.60
2013,08,10,11,08,20.60
2013,08,10,11,09,20.60
2013,08,10,11,10,20.60
2013,08,10,11,11,20.70
2013,08,10,11,12,20.70
2013,08,10,11,13,20.70
2013,08,10,11,14,20.70
2013,08,10,11,15,20.70
2013,08,10,11,16,20.70
2013,08,10,11,17,20.80
2013,08,10,11,18,20.80
2013,08,10,11,19,20.80
2013,08,10,11,20,20.90
2013,08,10,11,21,20.90
2013,08,10,11,22,20.90
2013,08,10,11,23,20.90
2013,08,10,11,24,20.90
2013,08,10,11,25,20.80
2013,08,10,11,26,20.80
2013,08,10,11,27,20.80
2013,08,10,11,28,20.80
2013,08,10,11,29,20.90
2013,08,10,11,30,20.90
2013,08,10,11,31,20.90
2013,08,10,11,32,20.90
2013,08,10,11,33,21.00
2013,08,10,11,34,21.00
2013,08,10,11,35,21.10
2013,08,10,11,36,21.10
2013,08,10,11,37,21.10
2013,08,10,11,38,21.10
2013,08,10,11,39,21.10
2013,08,10,11,40,21.10
2013,08,10,11,41,21.10
2013,08,10,11,42,21.10
2013,08,10,11,43,21.10
2013,08,10,11,44,21.10
2013,08,10,11,45,21.00
2013,08,10,11,46,20.90
2013,08,10,11,47,20.90
2013,08,10,11,48,20.90
2013,08,10,11,49,20.90
2013,08,10,11,50,20.80
2013,08,10,11,51,20.80
2013,08,10,11,52,20.80
2013,08,10,11,53,20.70
2013,08,10,11,54,20.70
2013,08,10,11,55,20.70
2013,08,10,11,56,20.70
2013,08,10,11,57,20.70
2013,08,10,11,58,20.70
2013,08,10,11,59,20.70
2013,08,10,12,00,20.70
2013,08,10,12,01,20.60
2013,08,10,12,02,20.60
2013,08,10,12,03,20.60
2013,08,10,12,04,20.60
2013,08,10,12,05,20.70
2013,08,10,12,06,20.80
2013,08,10,12,07,20.80
2013,08,10,12,08,20.80
2013,08,10,12,09,20.80
2013,08,10,12,10,20.80
2013,08,10,12,11,20.90
2013,08,10,12,12,21.00
2013,08,10,12,13,21.10
2013,08,10,12,14,21.20
2013,08,10,12,15,21.30
2013,08,10,12,16,21.40
2013,08,10,12,17,21.50
2013,08,10,12,18,21.60
2013,08,10,12,19,21.70
2013,08,10,12,20,21.70
2013,08,10,12,21,21.70
2013,08,10,12,22,21.80
2013,08,10,12,23,21.90
2013,08,10,12,24,21.90
2013,08,10,12,25,21.90
2013,08,10,12,26,21.90
2013,08,10,12,27,21.90
2013,08,10,12,28,21.90
2013,08,10,12,29,21.90
2013,08,10,12,30,21.90
2013,08,10,12,31,21.90
2013,08,10,12,32,21.90
2013,08,10,12,33,21.90
2013,08,10,12,34,21.90
2013,08,10,12,35,21.90
2013,08,10,12,36,21.90
2013,08,10,12,37,22.00
2013,08,10,12,38,22.10
2013,08,10,12,39,22.10
2013,08,10,12,40,22.10
2013,08,10,12,41,22.10
2013,08,10,12,42,22.10
2013,08,10,12,43,22.20
2013,08,10,12,44,22.20
2013,08,10,12,45,22.20
2013,08,10,12,46,22.20
2013,08,10,12,47,22.20
2013,08,10,12,48,22.30
2013,08,10,12,49,22.30
2013,08,10,12,50,22.40
2013,08,10,12,51,22.50
2013,08,10,12,52,22.50
2013,08,10,12,53,22.60
2013,08,10,12,54,22.60
2013,08,10,12,55,22.70
2013,08,10,12,56,22.70
2013,08,10,12,57,22.70
2013,08,10,12,58,22.70
2013,08,10,12,59,22.70
2013,08,10,13,00,22.70
2013,08,10,13,01,22.80
2013,08,10,13,02,22.90
2013,08,10,13,03,23.00
2013,08,10,13,04,23.10
2013,08,10,13,05,23.20
2013,08,10,13,06,23.30
2013,08,10,13,07,23.40
2013,08,10,13,08,23.40
2013,08,10,13,09,23.50
2013,08,10,13,10,23.60
2013,08,10,13,11,23.70
2013,08,10,13,12,23.80
2013,08,10,13,13,23.80
2013,08,10,13,14,23.80
2013,08,10,13,15,23.80
2013,08,10,13,16,23.80
2013,08,10,13,17,23.80
2013,08,10,13,18,23.80
2013,08,10,13,19,23.70
2013,08,10,13,20,23.70
2013,08,10,13,21,23.60
2013,08,10,13,22,23.60
2013,08,10,13,23,23.60
2013,08,10,13,24,23.60
2013,08,10,13,25,23.50
2013,08,10,13,26,23.50
2013,08,10,13,27,23.50
2013,08,10,13,28,23.50
2013,08,10,13,29,23.50
2013,08,10,13,30,23.50
2013,08,10,13,31,23.40
2013,08,10,13,32,23.40
2013,08,10,13,33,23.40
2013,08,10,13,34,23.30
2013,08,10,13,35,23.30
2013,08,10,13,36,23.20
2013,08,10,13,37,23.20
2013,08,10,13,38,23.10
2013,08,10,13,39,23.10
2013,08,10,13,40,23.10
2013,08,10,13,41,23.00
2013,08,10,13,42,23.00
2013,08,10,13,43,22.90
2013,08,10,13,44,22.80
2013,08,10,13,45,22.80
2013,08,10,13,46,22.80
2013,08,10,13,47,22.70
2013,08,10,13,48,22.70
2013,08,10,13,49,22.60
2013,08,10,13,50,22.60
2013,08,10,13,51,22.50
2013,08,10,13,52,22.40
2013,08,10,13,53,22.40
2013,08,10,13,54,22.40
2013,08,10,13,55,22.30
2013,08,10,13,56,22.30
2013,08,10,13,57,22.30
2013,08,10,13,58,22.30
2013,08,10,13,59,22.30
2013,08,10,14,00,22.30
2013,08,10,14,01,22.30
2013,08,10,14,02,22.30
2013,08,10,14,03,22.30
2013,08,10,14,04,22.30
2013,08,10,14,05,22.30
2013,08,10,14,06,22.30
2013,08,10,14,07,22.30
2013,08,10,14,08,22.30
2013,08,10,14,09,22.40
2013,08,10,14,10,22.40
2013,08,10,14,11,22.50
2013,08,10,14,12,22.50
2013,08,10,14,13,22.60
2013,08,10,14,14,22.70
2013,08,10,14,15,22.80
2013,08,10,14,16,22.80
2013,08,10,14,17,22.90
2013,08,10,14,18,23.00
2013,08,10,14,19,23.10
2013,08,10,14,20,23.10
2013,08,10,14,21,23.20
2013,08,10,14,22,23.20
2013,08,10,14,23,23.20
2013,08,10,14,24,23.30
2013,08,10,14,25,23.40
2013,08,10,14,26,23.40
2013,08,10,14,27,23.40
2013,08,10,14,28,23.40
2013,08,10,14,29,23.50
2013,08,10,14,30,23.50
2013,08,10,14,31,23.60
2013,08,10,14,32,23.80
2013,08,10,14,33,24.00
2013,08,10,14,34,24.20
2013,08,10,14,35,24.30
2013,08,10,14,36,24.50
2013,08,10,14,37,24.60
2013,08,10,14,38,24.70
2013,08,10,14,39,24.80
2013,08,10,14,40,24.90
2013,08,10,14,41,25.10
2013,08,10,14,42,25.20
2013,08,10,14,43,25.30
2013,08,10,14,44,25.30
2013,08,10,14,45,25.10
2013,08,10,14,46,25.00
2013,08,10,14,47,24.80
2013,08,10,14,48,24.80
2013,08,10,14,49,24.70
2013,08,10,14,50,24.60
2013,08,10,14,51,24.60
2013,08,10,14,52,24.60
2013,08,10,14,53,24.60
2013,08,10,14,54,24.60
2013,08,10,14,55,24.60
2013,08,10,14,56,24.50
2013,08,10,14,57,24.50
2013,08,10,14,58,24.50
2013,08,10,14,59,24.50
2013,08,10,15,00,24.50
2013,08,10,15,01,24.40
2013,08,10,15,02,24.40
2013,08,10,15,03,24.30
2013,08,10,15,04,24.20
2013,08,10,15,05,24.20
2013,08,10,15,06,24.10
2013,08,10,15,07,24.00
2013,08,10,15,08,23.90
2013,08,10,15,09,23.80
2013,08,10,15,10,23.70
2013,08,10,15,11,23.60
2013,08,10,15,12,23.50
2013,08,10,15,13,23.50
2013,08,10,15,14,23.40
2013,08,10,15,15,23.40
2013,08,10,15,16,23.30
2013,08,10,15,17,23.30
2013,08,10,15,18,23.20
2013,08,10,15,19,23.20
2013,08,10,15,20,23.10
2013,08,10,15,21,23.10
2013,08,10,15,22,23.10
2013,08,10,15,23,23.00
2013,08,10,15,24,22.90
2013,08,10,15,25,22.90
2013,08,10,15,26,22.80
2013,08,10,15,27,22.80
2013,08,10,15,28,22.70
2013,08,10,15,29,22.60
2013,08,10,15,30,22.60
2013,08,10,15,31,22.60
2013,08,10,15,32,22.60
2013,08,10,15,33,22.60
2013,08,10,15,34,22.50
2013,08,10,15,35,22.50
2013,08,10,15,36,22.40
2013,08,10,15,37,22.40
2013,08,10,15,38,22.30
2013,08,10,15,39,22.20
2013,08,10,15,40,22.20
2013,08,10,15,41,22.20
2013,08,10,15,42,22.10
2013,08,10,15,43,22.10
2013,08,10,15,44,22.00
2013,08,10,15,45,21.90
2013,08,10,15,46,21.90
2013,08,10,15,47,21.80
2013,08,10,15,48,21.80
2013,08,10,15,49,21.80
2013,08,10,15,50,21.80
2013,08,10,15,51,21.70
2013,08,10,15,52,21.70
2013,08,10,15,53,21.70
2013,08,10,15,54,21.70
2013,08,10,15,55,21.70
2013,08,10,15,56,21.70
2013,08,10,15,57,21.70
2013,08,10,15,58,21.70
2013,08,10,15,59,21.70
2013,08,10,16,00,21.80
2013,08,10,16,01,21.80
2013,08,10,16,02,21.80
2013,08,10,16,03,21.80
2013,08,10,16,04,21.90
2013,08,10,16,05,21.80
2013,08,10,16,06,21.80
2013,08,10,16,07,21.90
2013,08,10,16,08,21.90
2013,08,10,16,09,21.90
2013,08,10,16,10,21.90
2013,08,10,16,11,21.90
2013,08,10,16,12,21.90
2013,08,10,16,13,21.90
2013,08,10,16,14,21.90
2013,08,10,16,15,21.90
2013,08,10,16,16,21.90
2013,08,10,16,17,21.90
2013,08,10,16,18,21.90
2013,08,10,16,19,22.00
2013,08,10,16,20,22.00
2013,08,10,16,21,22.00
2013,08,10,16,22,22.00
2013,08,10,16,23,22.00
2013,08,10,16,24,21.90
2013,08,10,16,25,21.90
2013,08,10,16,26,21.80
2013,08,10,16,27,21.80
2013,08,10,16,28,21.70
2013,08,10,16,29,21.70
2013,08,10,16,30,21.60
2013,08,10,16,31,21.60
2013,08,10,16,32,21.50
2013,08,10,16,33,21.50
2013,08,10,16,34,21.50
2013,08,10,16,35,21.50
2013,08,10,16,36,21.50
2013,08,10,16,37,21.50
2013,08,10,16,38,21.50
2013,08,10,16,39,21.50
2013,08,10,16,40,21.60
2013,08,10,16,41,21.60
2013,08,10,16,42,21.60
2013,08,10,16,43,21.60
2013,08,10,16,44,21.60
2013,08,10,16,45,21.60
2013,08,10,16,46,21.60
2013,08,10,16,47,21.50
2013,08,10,16,48,21.50
2013,08,10,16,49,21.50
2013,08,10,16,50,21.40
2013,08,10,16,51,21.40
2013,08,10,16,52,21.40
2013,08,10,16,53,21.40
2013,08,10,16,54,21.40
2013,08,10,16,55,21.40
2013,08,10,16,56,21.40
2013,08,10,16,57,21.30
2013,08,10,16,58,21.30
2013,08,10,16,59,21.30
2013,08,10,17,00,21.30
2013,08,10,17,01,21.30
2013,08,10,17,02,21.30
2013,08,10,17,03,21.30
2013,08,10,17,04,21.30
2013,08,10,17,05,21.30
2013,08,10,17,06,21.30
2013,08,10,17,07,21.30
2013,08,10,17,08,21.30
2013,08,10,17,09,21.30
2013,08,10,17,10,21.40
2013,08,10,17,11,21.40
2013,08,10,17,12,21.40
2013,08,10,17,13,21.40
2013,08,10,17,14,21.40
2013,08,10,17,15,21.40
2013,08,10,17,16,21.40
2013,08,10,17,17,21.40
2013,08,10,17,18,21.40
2013,08,10,17,19,21.40